Location: Belmont
(13.0833°N, 59.6000°W)
Time: 18:47:07
(UTC+00:00)

Cosmos 1441 Rocket - Pass Details

Date: 17 September 2019
Orbit: 497 x 541 km, 81.1° (Epoch: 21 October)

Event Time Altitude Azimuth Distance (km) Brightness Sun altitude
Rises 22:54:28 0° 189° (S) 2,663 6.9 -14.5°
Reaches altitude 10° 22:56:38 10° 191° (S) 1,767 6.0 -15.0°
Maximum altitude 23:00:30 73° 275° (W) 547 3.4 -16.0°
Drops below altitude 10° 23:04:20 10° 1° (N) 1,742 5.9 -16.9°
Sets 23:06:27 0° 3° (N) 2,621 6.8 -17.4°
